User: anonymous   Login
Location: WWIN Observatory
(34.8953°N, 91.9583°W)
Time: 04:36:02
(UTC-06:00)
Language:

CAS-4B - Orbit

View from above orbital plane
View from above orbital plane
View from above satellite
View from above satellite

Ground track
Ground track

The orbit data is extracted from the following two-line orbital elements,

1 42759U 17034B   19349.19049769  .00000060  00000-0  17176-4 0  9995
2 42759  43.0208 324.8493 0012772 302.2167 233.3113 15.09701589137966
Epoch (UTC): 15 December 2019 04:34:19
Eccentricity: 0.0012772
inclination: 43.0208°
perigee height: 528 km
apogee height: 546 km
right ascension of ascending node: 324.8493°
argument of perigee: 302.2167°
revolutions per day: 15.09701589
mean anomaly at epoch: 233.3113°
orbit number at epoch: 13796

The dashed part of the orbit path shows where the satellite is in the earth's shadow,  

DLR